FW6835 Weather Reports


time (UTC)temp
C
wind
direction
speed
KPH
gust
KPH
rain 1hr
cm
rain 24hr
cm
rain mn
cm
humidity
%
barometer
mb
20260510183032 13 117 0.0 0.0 0.00 0.00 0.00 69 1009.9
20260510182531 13 117 0.0 0.0 0.00 0.00 0.00 69 1009.9
20260510182031 14 117 0.0 0.0 0.00 0.00 0.00 69 1009.9
20260510181531 14 117 0.0 0.0 0.00 0.00 0.00 69 1009.9
20260510181030 14 117 0.0 0.0 0.00 0.00 0.00 68 1009.9
20260510180533 14 121 0.0 0.0 0.00 0.00 0.00 68 1009.9
20260510180034 14 121 0.0 0.0 0.00 0.00 0.00 68 1009.9
20260510175529 15 121 0.0 3.2 0.00 0.00 0.00 68 1010.1
20260510175032 15 121 0.0 3.2 0.00 0.00 0.00 67 1010.1
20260510174528 15 121 0.0 0.0 0.00 0.00 0.00 66 1010.4
20260510174028 15 121 0.0 0.0 0.00 0.00 0.00 66 1010.2
20260510173529 16 121 0.0 0.0 0.00 0.00 0.00 66 1010.2
20260510173027 16 121 0.0 1.6 0.00 0.00 0.00 65 1010.3
20260510172526 16 121 0.0 1.6 0.00 0.00 0.00 65 1010.3
20260510172029 16 121 0.0 3.2 0.00 0.00 0.00 66 1010.5
20260510171525 16 121 0.0 3.2 0.00 0.00 0.00 62 1010.4
20260510171024 17 123 0.0 0.0 0.00 0.00 0.00 61 1010.5
20260510170526 17 191 0.0 0.0 0.00 0.00 0.00 63 1010.8
20260510170028 17 191 0.0 8.0 0.00 0.00 0.00 62 1010.8
20260510165523 17 175 1.6 8.0 0.00 0.00 0.00 61 1010.8
20260510165024 17 165 0.0 6.4 0.00 0.00 0.00 60 1010.9
20260510164523 17 188 0.0 4.8 0.00 0.00 0.00 61 1010.9
20260510164022 17 186 0.0 6.4 0.00 0.00 0.00 60 1010.9
20260510163521 17 186 0.0 6.4 0.00 0.00 0.00 59 1010.9
20260510163020 17 207 0.0 6.4 0.00 0.00 0.00 62 1011.0
20260510162521 17 185 0.0 6.4 0.00 0.00 0.00 61 1011.1
20260510162019 17 182 0.0 11.3 0.00 0.00 0.00 61 1011.2
20260510161523 17 179 4.8 11.3 0.00 0.00 0.00 58 1011.3
20260510161019 18 170 1.6 6.4 0.00 0.00 0.00 59 1011.2
20260510160523 18 94 1.6 6.4 0.00 0.00 0.00 59 1011.4
20260510160018 18 208 1.6 4.8 0.00 0.00 0.00 59 1011.5
20260510155618 18 222 1.6 4.8 0.00 0.00 0.00 58 1011.5
20260510155017 18 227 0.0 4.8 0.00 0.00 0.00 60 1011.7
20260510154518 18 269 1.6 4.8 0.00 0.00 0.00 60 1011.5
20260510154021 18 278 1.6 8.0 0.00 0.00 0.00 59 1011.7
20260510153520 18 227 1.6 8.0 0.00 0.00 0.00 60 1011.7
20260510153018 18 154 3.2 9.7 0.00 0.00 0.00 58 1011.7
20260510152514 18 78 0.0 6.4 0.00 0.00 0.00 61 1011.7
20260510152013 18 215 0.0 6.4 0.00 0.00 0.00 59 1011.8
20260510151514 18 228 1.6 11.3 0.00 0.00 0.00 60 1011.9
20260510151014 18 144 1.6 11.3 0.00 0.00 0.00 57 1011.9
20260510150513 18 153 3.2 8.0 0.00 0.00 0.00 59 1012.0
20260510150012 18 250 3.2 8.0 0.00 0.00 0.00 60 1012.1
20260510145513 18 197 1.6 8.0 0.00 0.00 0.00 59 1012.2
20260510145011 18 244 1.6 8.0 0.00 0.00 0.00 62 1012.2
20260510144516 18 158 1.6 8.0 0.00 0.00 0.00 59 1012.3
20260510144011 18 205 0.0 8.0 0.00 0.00 0.00 61 1012.2
20260510143510 17 153 1.6 9.7 0.00 0.00 0.00 62 1012.3
20260510143018 18 195 3.2 9.7 0.00 0.00 0.00 61 1012.3
20260510142512 18 161 3.2 9.7 0.00 0.00 0.00 61 1012.4
20260510142009 18 140 3.2 8.0 0.00 0.00 0.00 65 1012.5
20260510141508 18 159 4.8 9.7 0.00 0.00 0.00 61 1012.5
20260510141008 18 162 3.2 11.3 0.00 0.00 0.00 60 1012.6
20260510140507 18 217 1.6 11.3 0.00 0.00 0.00 58 1012.6
20260510140006 18 273 1.6 6.4 0.00 0.00 0.00 61 1012.8
20260510135507 18 131 1.6 6.4 0.00 0.00 0.00 61 1012.9
20260510135005 18 268 3.2 6.4 0.00 0.00 0.00 59 1012.9
20260510134505 18 242 1.6 8.0 0.00 0.00 0.00 62 1013.0
20260510134003 18 88 3.2 11.3 0.00 0.00 0.00 58 1013.0
20260510133502 18 147 1.6 11.3 0.00 0.00 0.00 61 1013.2
20260510133003 18 215 4.8 11.3 0.00 0.00 0.00 61 1013.1
20260510132502 18 214 3.2 6.4 0.00 0.00 0.00 63 1013.2
20260510132003 17 267 1.6 6.4 0.00 0.00 0.00 61 1013.2
20260510131501 17 257 1.6 9.7 0.00 0.00 0.00 61 1013.3
20260510131000 17 186 1.6 11.3 0.00 0.00 0.00 61 1013.5
20260510130600 17 167 3.2 11.3 0.00 0.00 0.00 62 1013.4
20260510130059 17 272 1.6 11.3 0.00 0.00 0.00 63 1013.5
20260510125558 17 264 4.8 11.3 0.00 0.00 0.00 64 1013.6
20260510125056 17 134 3.2 11.3 0.00 0.00 0.00 62 1013.7
20260510124611 17 199 4.8 11.3 0.00 0.00 0.00 62 1013.8
20260510124055 17 219 4.8 11.3 0.00 0.00 0.00 66 1013.8
20260510123554 17 244 3.2 11.3 0.00 0.00 0.00 65 1013.8
20260510123054 17 246 1.6 9.7 0.00 0.00 0.00 64 1013.9
20260510122552 17 220 3.2 12.9 0.00 0.00 0.00 67 1014.1
20260510122052 17 262 4.8 11.3 0.00 0.00 0.00 66 1014.1
20260510121551 16 193 3.2 11.3 0.00 0.00 0.00 66 1014.2
20260510121052 16 176 4.8 11.3 0.00 0.00 0.00 64 1014.4
20260510120549 16 274 4.8 11.3 0.00 0.00 0.00 68 1014.4
20260510120050 16 188 3.2 11.3 0.00 0.00 0.00 69 1014.5
20260510115549 16 232 1.6 11.3 0.00 0.00 0.00 67 1014.5
20260510115049 16 236 6.4 11.3 0.00 0.00 0.00 66 1014.4
20260510114548 16 238 3.2 11.3 0.00 0.00 0.00 67 1014.4
20260510114048 16 137 3.2 11.3 0.00 0.00 0.00 67 1014.6
20260510113546 16 143 4.8 11.3 0.00 0.00 0.00 65 1014.7
20260510113046 16 253 1.6 9.7 0.00 0.00 0.00 73 1014.6
20260510112646 16 137 1.6 11.3 0.00 0.00 0.00 65 1014.8
20260510112045 16 216 3.2 11.3 0.00 0.00 0.00 69 1014.7
20260510111544 16 233 3.2 11.3 0.00 0.00 0.00 68 1014.9
20260510111044 16 208 3.2 8.0 0.00 0.00 0.00 70 1014.9
20260510110542 16 252 4.8 9.7 0.00 0.00 0.00 68 1015.0
20260510110047 16 199 4.8 14.5 0.00 0.00 0.00 71 1014.9
20260510105540 16 179 3.2 14.5 0.00 0.00 0.00 73 1015.1
20260510105039 15 150 4.8 12.9 0.00 0.00 0.00 70 1015.1
20260510104539 15 149 4.8 12.9 0.00 0.00 0.00 70 1015.3
20260510104040 15 291 4.8 12.9 0.00 0.00 0.00 69 1015.3
20260510103535 15 204 3.2 12.9 0.00 0.00 0.00 71 1015.4
20260510103035 15 126 4.8 11.3 0.00 0.00 0.00 72 1015.3
20260510102534 15 153 6.4 11.3 0.00 0.00 0.00 70 1015.5
20260510102035 15 188 0.0 11.3 0.00 0.00 0.00 71 1015.5
20260510101534 15 157 4.8 11.3 0.00 0.00 0.00 71 1015.6
20260510101033 15 250 1.6 12.9 0.00 0.00 0.00 73 1015.6
20260510100533 15 225 6.4 11.3 0.00 0.00 0.00 69 1015.7
20260510100030 15 197 4.8 12.9 0.00 0.00 0.00 76 1015.7
20260510095529 14 144 4.8 12.9 0.00 0.00 0.00 71 1015.8
20260510095029 14 139 6.4 12.9 0.00 0.00 0.00 71 1015.7
20260510094543 14 211 4.8 12.9 0.00 0.00 0.00 72 1015.8
20260510094026 14 221 4.8 11.3 0.00 0.00 0.00 70 1015.8
20260510093527 13 296 3.2 14.5 0.00 0.00 0.00 71 1015.8
20260510093029 14 148 6.4 14.5 0.00 0.00 0.00 71 1016.0
20260510092526 14 211 3.2 6.4 0.00 0.00 0.00 72 1016.1
20260510092021 13 211 3.2 8.0 0.00 0.00 0.00 75 1016.0
20260510091525 13 203 0.0 8.0 0.00 0.00 0.00 75 1016.2
20260510091019 13 166 1.6 8.0 0.00 0.00 0.00 74 1016.2
20260510090518 13 156 1.6 14.5 0.00 0.00 0.00 75 1016.2
20260510090019 13 208 4.8 12.9 0.00 0.00 0.00 75 1016.2
20260510085516 12 194 4.8 12.9 0.00 0.00 0.00 75 1016.4
20260510085016 12 174 6.4 12.9 0.00 0.00 0.00 74 1016.4
20260510084514 12 196 4.8 12.9 0.00 0.00 0.00 74 1016.4
20260510084013 12 198 4.8 12.9 0.00 0.00 0.00 76 1016.5
20260510083512 12 110 6.4 12.9 0.00 0.00 0.00 74 1016.6
20260510083010 12 146 4.8 9.7 0.00 0.00 0.00 73 1016.5
20260510082509 12 101 3.2 9.7 0.00 0.00 0.00 75 1016.6
20260510082007 11 154 1.6 16.1 0.00 0.00 0.00 76 1016.6
20260510081509 11 167 8.0 16.1 0.00 0.00 0.00 73 1016.7
20260510081005 11 233 3.2 17.7 0.00 0.00 0.00 76 1016.7
20260510080504 11 175 4.8 17.7 0.00 0.00 0.00 74 1016.8
20260510080002 11 195 4.8 14.5 0.00 0.00 0.00 75 1016.9
20260510075502 11 219 6.4 14.5 0.00 0.00 0.00 76 1016.7
20260510075101 11 188 8.0 14.5 0.00 0.00 0.00 75 1016.8
20260510074600 11 134 4.8 12.9 0.00 0.00 0.00 75 1016.9
20260510074057 11 198 4.8 12.9 0.00 0.00 0.00 76 1016.9
20260510073556 11 186 3.2 12.9 0.00 0.00 0.00 77 1016.9
20260510073054 11 140 4.8 14.5 0.00 0.00 0.00 76 1016.9
20260510072553 10 172 6.4 14.5 0.00 0.00 0.00 78 1017.0
20260510072052 10 159 4.8 12.9 0.00 0.00 0.00 78 1017.2
20260510071554 10 229 4.8 9.7 0.00 0.00 0.00 78 1017.2
20260510071049 10 176 3.2 17.7 0.00 0.00 0.00 79 1017.1
20260510070552 10 188 4.8 17.7 0.00 0.00 0.00 78 1017.2
20260510070046 10 161 1.6 14.5 0.00 0.00 0.00 78 1017.2
20260510065545 10 175 1.6 12.9 0.00 0.00 0.00 79 1017.3
20260510065043 10 202 1.6 20.9 0.00 0.00 0.00 79 1017.3
20260510064541 10 178 0.0 20.9 0.00 0.00 0.00 80 1017.4
20260510064040 10 143 3.2 12.9 0.00 0.00 0.00 80 1017.6
20260510063540 10 163 1.6 9.7 0.00 0.00 0.00 81 1017.5
20260510063037 9 43 4.8 9.7 0.00 0.00 0.00 80 1017.7
20260510062538 9 141 3.2 12.9 0.00 0.00 0.00 80 1017.5
20260510062034 9 84 6.4 12.9 0.00 0.00 0.00 80 1017.6
20260510061533 9 123 3.2 11.3 0.00 0.00 0.00 80 1017.5
20260510061032 9 219 3.2 11.3 0.00 0.00 0.00 80 1017.6
20260510060530 9 97 0.0 16.1 0.00 0.00 0.00 82 1017.7
20260510060029 8 207 1.6 16.1 0.00 0.00 0.00 80 1017.8
20260510055528 8 173 0.0 9.7 0.00 0.00 0.00 82 1017.8
20260510055028 8 225 1.6 12.9 0.00 0.00 0.00 81 1017.8
20260510054526 8 87 0.0 12.9 0.00 0.00 0.00 82 1017.8
20260510054025 8 166 4.8 12.9 0.00 0.00 0.00 82 1017.7
20260510053525 8 175 1.6 6.4 0.00 0.00 0.00 82 1017.8
20260510053045 8 227 0.0 8.0 0.00 0.00 0.00 83 1017.8
20260510052525 8 83 1.6 8.0 0.00 0.00 0.00 83 1017.8
20260510052024 8 62 0.0 6.4 0.00 0.00 0.00 84 1017.8
20260510051526 8 59 1.6 8.0 0.00 0.00 0.00 84 1017.8
20260510051023 8 79 1.6 8.0 0.00 0.00 0.00 84 1017.8
20260510050523 8 167 1.6 6.4 0.00 0.00 0.00 84 1017.9
20260510050028 7 80 1.6 8.0 0.00 0.00 0.00 84 1017.9
20260510045522 7 77 3.2 8.0 0.00 0.00 0.00 84 1017.9
20260510045022 7 65 1.6 12.9 0.00 0.00 0.00 85 1017.9
20260510044522 7 83 1.6 12.9 0.00 0.00 0.00 85 1018.0
20260510044021 7 80 3.2 9.7 0.00 0.00 0.00 85 1017.9
20260510043520 7 69 3.2 9.7 0.00 0.00 0.00 85 1017.8
20260510043036 7 82 1.6 6.4 0.00 0.00 0.00 86 1017.8
20260510042518 7 5 3.2 6.4 0.00 0.00 0.00 85 1017.8
20260510042018 7 71 1.6 6.4 0.00 0.00 0.00 85 1017.9
20260510041525 7 76 3.2 6.4 0.00 0.00 0.00 85 1018.0
20260510041018 7 55 1.6 6.4 0.00 0.00 0.00 85 1017.9
20260510040518 7 136 3.2 6.4 0.00 0.00 0.00 86 1018.1
20260510040032 7 69 1.6 4.8 0.00 0.00 0.00 86 1018.0
20260510035516 7 73 1.6 6.4 0.00 0.00 0.00 85 1018.0
20260510035016 7 71 1.6 6.4 0.00 0.00 0.00 85 1017.9
20260510034614 7 63 1.6 4.8 0.00 0.00 0.00 85 1018.0
20260510034015 7 39 1.6 9.7 0.00 0.00 0.00 85 1017.9
20260510033512 7 53 1.6 6.4 0.00 0.00 0.00 85 1017.9
20260510033012 7 24 3.2 6.4 0.00 0.00 0.00 84 1017.9
20260510032514 7 57 1.6 4.8 0.00 0.00 0.00 85 1017.8
20260510032011 7 138 0.0 9.7 0.00 0.00 0.00 84 1017.8
20260510031511 7 95 3.2 9.7 0.00 0.00 0.00 84 1017.9
20260510031010 7 34 1.6 9.7 0.00 0.00 0.00 84 1017.7
20260510030509 7 11 3.2 8.0 0.00 0.00 0.00 84 1017.9
20260510030009 7 38 1.6 4.8 0.00 0.00 0.00 84 1017.9
20260510025508 7 32 1.6 6.4 0.00 0.00 0.00 84 1017.9
20260510025008 7 68 1.6 6.4 0.00 0.00 0.00 83 1018.1
20260510024507 7 76 1.6 6.4 0.00 0.00 0.00 83 1018.0
20260510024010 7 69 1.6 6.4 0.00 0.00 0.00 83 1018.1
20260510023506 7 66 1.6 6.4 0.00 0.00 0.00 84 1018.2
20260510023007 7 5 1.6 9.7 0.00 0.00 0.00 84 1018.3
20260510022505 7 93 3.2 6.4 0.00 0.00 0.00 83 1018.3
20260510022004 7 75 0.0 11.3 0.00 0.00 0.00 83 1018.2
20260510021514 7 89 3.2 11.3 0.00 0.00 0.00 83 1018.5
20260510021004 7 101 3.2 6.4 0.00 0.00 0.00 82 1018.6
20260510020502 7 59 1.6 6.4 0.00 0.00 0.00 82 1018.6
20260510020002 7 40 0.0 9.7 0.00 0.00 0.00 83 1018.7
20260510015505 7 82 1.6 9.7 0.00 0.00 0.00 83 1018.8
20260510015001 7 52 0.0 4.8 0.00 0.00 0.00 84 1018.8
20260510014503 7 45 0.0 4.8 0.00 0.00 0.00 84 1018.7
20260510014002 7 80 1.6 6.4 0.00 0.00 0.00 83 1018.7
20260510013502 7 80 1.6 8.0 0.00 0.00 0.00 83 1018.8
20260510013100 7 23 1.6 8.0 0.00 0.00 0.00 83 1018.6
20260510012600 7 56 1.6 6.4 0.00 0.00 0.00 83 1018.7
20260510012101 7 48 3.2 6.4 0.00 0.00 0.00 84 1018.9
20260510011559 7 61 1.6 8.0 0.00 0.00 0.00 84 1018.8
20260510011158 7 82 3.2 8.0 0.00 0.00 0.00 85 1018.9
20260510010557 7 59 3.2 6.4 0.00 0.00 0.00 84 1019.0
20260510010056 7 26 1.6 6.4 0.00 0.00 0.00 84 1019.1
20260510005555 7 339 1.6 6.4 0.00 0.00 0.00 84 1019.3
20260510005054 7 40 1.6 6.4 0.00 0.00 0.00 83 1019.4
20260510004559 7 53 1.6 6.4 0.00 0.00 0.00 83 1019.4
20260510004054 8 97 3.2 6.4 0.00 0.00 0.00 83 1019.4
20260510003554 8 88 0.0 6.4 0.00 0.00 0.00 82 1019.4
20260510003055 8 77 3.2 6.4 0.00 0.00 0.00 82 1019.5
20260510002552 8 47 1.6 6.4 0.00 0.00 0.00 82 1019.5
20260510002052 8 59 1.6 6.4 0.00 0.00 0.00 82 1019.6
20260510001552 8 69 3.2 6.4 0.00 0.00 0.00 82 1019.7
20260510001051 8 342 1.6 8.0 0.00 0.00 0.00 82 1019.7
20260510000554 7 69 3.2 8.0 0.00 0.00 0.00 83 1019.7
20260510000058 7 61 1.6 8.0 0.00 0.00 0.00 83 1019.6
20260509235553 7 343 1.6 8.0 0.00 0.00 0.00 83 1019.7
20260509235050 7 17 1.6 6.4 0.00 0.00 0.00 83 1019.7
20260509234550 7 53 1.6 6.4 0.00 0.00 0.00 83 1019.8
20260509234049 7 17 1.6 6.4 0.00 0.00 0.00 83 1019.8
20260509233548 7 311 1.6 4.8 0.00 0.00 0.00 83 1019.8
20260509233047 8 290 1.6 6.4 0.00 0.00 0.00 83 1019.9
20260509232548 8 12 1.6 8.0 0.00 0.00 0.00 83 1020.0
20260509232046 8 22 1.6 9.7 0.00 0.00 0.00 82 1020.1
20260509231546 8 287 1.6 9.7 0.00 0.00 0.00 83 1020.0
20260509231047 8 71 1.6 9.7 0.00 0.00 0.00 82 1020.0
20260509230544 8 9 1.6 6.4 0.00 0.00 0.00 82 1020.1
20260509230044 8 343 1.6 6.4 0.00 0.00 0.00 82 1020.1
20260509225544 8 44 1.6 6.4 0.00 0.00 0.00 82 1020.2
20260509225042 8 36 1.6 6.4 0.00 0.00 0.00 82 1020.2
20260509224543 8 99 1.6 6.4 0.00 0.00 0.00 82 1020.2
20260509224042 8 9 1.6 6.4 0.00 0.00 0.00 82 1020.1
20260509223542 8 103 3.2 9.7 0.00 0.00 0.00 82 1020.1
20260509223042 8 85 1.6 6.4 0.00 0.00 0.00 82 1020.2
20260509222541 8 40 0.0 4.8 0.00 0.00 0.00 82 1020.2
20260509222040 8 24 3.2 8.0 0.00 0.00 0.00 82 1020.3
20260509221540 8 78 3.2 8.0 0.00 0.00 0.00 82 1020.3
20260509221039 8 32 1.6 6.4 0.00 0.00 0.00 83 1020.4
20260509220538 8 52 0.0 4.8 0.00 0.00 0.00 83 1020.5
20260509220039 8 41 0.0 4.8 0.00 0.00 0.00 83 1020.5
20260509215537 8 44 1.6 6.4 0.00 0.00 0.00 83 1020.5
20260509215036 8 343 1.6 6.4 0.00 0.00 0.00 83 1020.5
20260509214547 8 44 0.0 4.8 0.00 0.00 0.00 83 1020.5
20260509214036 8 33 0.0 8.0 0.00 0.00 0.00 83 1020.4
20260509213536 8 142 1.6 9.7 0.00 0.00 0.00 82 1020.4
20260509213037 8 50 3.2 9.7 0.00 0.00 0.00 83 1020.5
20260509212635 8 42 1.6 6.4 0.00 0.00 0.00 84 1020.3
20260509212035 8 303 1.6 4.8 0.00 0.00 0.00 84 1020.3
20260509211535 8 38 1.6 4.8 0.00 0.00 0.00 84 1020.3
20260509211035 8 13 0.0 6.4 0.00 0.00 0.00 84 1020.5
20260509210535 8 170 0.0 4.8 0.00 0.00 0.00 85 1020.5
20260509210039 8 324 1.6 4.8 0.00 0.00 0.00 84 1020.5
20260509205536 8 269 0.0 6.4 0.00 0.00 0.00 85 1020.5
20260509205035 8 16 1.6 6.4 0.00 0.00 0.00 85 1020.5
20260509204536 8 269 0.0 4.8 0.00 0.00 0.00 85 1020.6
20260509204034 8 267 1.6 8.0 0.00 0.00 0.00 85 1020.6
20260509203536 8 49 1.6 8.0 0.00 0.00 0.00 86 1020.6
20260509203033 8 307 0.0 4.8 0.00 0.00 0.00 86 1020.7
20260509202533 8 307 1.6 4.8 0.00 0.00 0.00 85 1020.5
20260509202034 8 307 1.6 6.4 0.00 0.00 0.00 85 1020.5
20260509201533 8 208 1.6 6.4 0.00 0.00 0.00 85 1020.5
20260509201033 8 304 0.0 3.2 0.00 0.00 0.00 85 1020.6
20260509200533 8 304 0.0 4.8 0.00 0.00 0.00 84 1020.5
20260509200035 8 304 1.6 4.8 0.00 0.00 0.00 84 1020.5
20260509195533 8 342 1.6 3.2 0.00 0.00 0.00 83 1020.5
20260509195032 8 355 0.0 4.8 0.00 0.00 0.00 83 1020.5
20260509194534 8 333 1.6 9.7 0.00 0.00 0.00 83 1020.5
20260509194032 8 342 1.6 9.7 0.00 0.00 0.00 83 1020.5
20260509193532 8 29 1.6 9.7 0.00 0.00 0.00 82 1020.4
20260509193033 8 5 1.6 6.4 0.00 0.00 0.00 83 1020.4
20260509192531 9 66 1.6 4.8 0.00 0.00 0.00 83 1020.5
20260509192031 9 67 1.6 4.8 0.00 0.00 0.00 83 1020.5
20260509191545 9 58 1.6 6.4 0.00 0.00 0.00 83 1020.4
20260509191030 9 61 1.6 6.4 0.00 0.00 0.00 83 1020.5
20260509190533 9 12 1.6 4.8 0.00 0.00 0.00 83 1020.4
20260509190032 9 94 0.0 6.4 0.00 0.00 0.00 82 1020.3
20260509185530 9 94 0.0 6.4 0.00 0.00 0.00 82 1020.4
20260509185030 9 87 1.6 6.4 0.00 0.00 0.00 81 1020.4
20260509184543 9 67 1.6 6.4 0.00 0.00 0.00 81 1020.4
20260509184030 9 33 0.0 6.4 0.00 0.00 0.00 81 1020.3
20260509183530 9 331 0.0 4.8 0.00 0.00 0.00 81 1020.3